Date String (YYYY-MM-DD hh:mm:ss) UTC,Instrument flags,Ambient pressure (hPa),Sample flow (lpm),Bypass flow (lpm),Sample temperature (°C),Ambient temperature (°C),ASC tube jacket temperature (°C),LED temperature (°C),Box temperature (°C),Sample RH (%),Span deviation,Mass concentration (μg/m³),Mass concentration (μg/m³),Mass concentration (μg/m³)
DateTimeUTC,F1_M11,P_M11,Q1_M11,Q2_M11,T1_M11,T2_M11,T3_M11,T4_M11,T5_M11,U1_M11,ZSPAN_M11,X0_M11,X2_M11,X1_M11
2022-12-24 20:00:00,,0830.3,4.97,0.00,23.5,22.1,00.0,32.4,25.1,12.3,0000.0,0000.29,0000.21,0000.20
2022-12-24 20:01:00,,0830.3,4.98,0.00,23.5,22.1,00.0,32.4,25.1,12.4,0000.0,0000.29,0000.21,0000.20
2022-12-24 20:02:00,,0830.2,5.03,0.00,23.5,22.0,00.0,32.4,25.1,12.7,0000.0,0000.41,0000.23,0000.20
2022-12-24 20:03:00,,0830.3,5.02,0.00,23.5,22.0,00.0,32.3,25.1,13.0,0000.0,0000.44,0000.24,0000.20
2022-12-24 20:04:00,,0830.2,4.98,0.00,23.5,22.1,00.0,32.3,25.1,13.0,0000.0,0000.49,0000.25,0000.20
2022-12-24 20:05:00,,0830.2,4.98,0.00,23.5,22.1,00.0,32.3,25.1,12.4,0000.0,0000.55,0000.25,0000.20
2022-12-24 20:06:00,,0830.2,5.04,0.00,23.5,22.1,00.0,32.3,25.1,12.4,0000.0,0000.55,0000.26,0000.21
2022-12-24 20:07:00,,0830.1,5.01,0.00,23.5,22.1,00.0,32.3,25.1,12.5,0000.0,0000.57,0000.27,0000.22
2022-12-24 20:08:00,,0830.1,4.95,0.00,23.5,22.0,00.0,32.3,25.1,12.3,0000.0,0000.56,0000.27,0000.22
2022-12-24 20:09:00,,0830.1,5.01,0.00,23.5,22.0,00.0,32.3,25.1,12.1,0000.0,0000.52,0000.26,0000.22
2022-12-24 20:10:00,,0830.1,5.03,0.00,23.5,22.0,00.0,32.3,25.2,12.1,0000.0,0000.53,0000.26,0000.22
2022-12-24 20:11:00,,0830.1,5.02,0.00,23.5,22.0,00.0,32.3,25.1,12.3,0000.0,0000.56,0000.28,0000.22
2022-12-24 20:12:00,,0830.1,4.97,0.00,23.4,22.0,00.0,32.3,25.1,12.3,0000.0,0000.55,0000.27,0000.21
2022-12-24 20:13:00,,0830.1,4.99,0.00,23.4,22.0,00.0,32.3,25.1,12.1,0000.0,0000.43,0000.25,0000.20
2022-12-24 20:14:00,,0830.1,5.02,0.00,23.4,22.1,00.0,32.3,25.1,12.1,0000.0,0000.39,0000.23,0000.19
2022-12-24 20:15:00,,0830.1,5.00,0.00,23.4,22.1,00.0,32.3,25.1,12.1,0000.0,0000.33,0000.21,0000.18
2022-12-24 20:16:00,,0830.1,4.95,0.00,23.4,22.1,00.0,32.3,25.2,12.4,0000.0,0000.26,0000.20,0000.17
2022-12-24 20:17:00,,0830.0,5.02,0.00,23.4,22.0,00.0,32.3,25.2,12.4,0000.0,0000.28,0000.20,0000.17
2022-12-24 20:18:00,,0830.1,5.04,0.00,23.4,21.9,00.0,32.3,25.1,12.4,0000.0,0000.30,0000.20,0000.17
2022-12-24 20:19:00,,0830.1,5.00,0.00,23.4,21.8,00.0,32.3,25.1,12.2,0000.0,0000.29,0000.20,0000.16
2022-12-24 20:20:00,,0830.1,4.96,0.00,23.4,21.8,00.0,32.3,25.1,12.3,0000.0,0000.29,0000.20,0000.16
2022-12-24 20:21:00,,0830.1,5.03,0.00,23.4,21.9,00.0,32.3,25.1,12.4,0000.0,0000.29,0000.20,0000.16
2022-12-24 20:22:00,,0830.1,5.04,0.00,23.4,22.0,00.0,32.3,25.1,12.5,0000.0,0000.28,0000.19,0000.16
2022-12-24 20:23:00,,0830.1,4.96,0.00,23.4,22.0,00.0,32.3,25.1,12.6,0000.0,0000.27,0000.18,0000.15
2022-12-24 20:24:00,,0830.1,4.99,0.00,23.4,22.1,00.0,32.2,25.1,12.9,0000.0,0000.26,0000.18,0000.15
2022-12-24 20:25:00,,0830.0,5.03,0.00,23.4,22.1,00.0,32.3,25.2,13.1,0000.0,0000.26,0000.18,0000.16
2022-12-24 20:26:00,,0830.0,5.02,0.00,23.4,22.2,00.0,32.3,25.2,12.7,0000.0,0000.26,0000.18,0000.16
2022-12-24 20:27:00,,0829.9,4.97,0.00,23.4,22.2,00.0,32.3,25.3,12.4,0000.0,0000.27,0000.18,0000.16
2022-12-24 20:28:00,,0830.0,4.98,0.00,23.4,22.2,00.0,32.3,25.2,12.3,0000.0,0000.30,0000.20,0000.17
2022-12-24 20:29:00,,0829.8,5.01,0.00,23.5,22.2,00.0,32.3,25.2,12.2,0000.0,0000.28,0000.19,0000.17
2022-12-24 20:30:00,,0829.9,5.03,0.00,23.5,22.2,00.0,32.3,25.3,12.8,0000.0,0000.28,0000.19,0000.17
2022-12-24 20:31:00,,0830.0,4.97,0.00,23.5,22.3,00.0,32.3,25.3,13.0,0000.0,0000.28,0000.19,0000.17
2022-12-24 20:32:00,,0829.9,4.97,0.00,23.5,22.3,00.0,32.3,25.2,12.5,0000.0,0000.27,0000.19,0000.17
2022-12-24 20:33:00,,0829.9,5.01,0.00,23.5,22.3,00.0,32.3,25.3,11.7,0000.0,0000.26,0000.19,0000.17
2022-12-24 20:34:00,,0829.9,5.02,0.00,23.5,22.3,00.0,32.3,25.2,11.9,0000.0,0000.26,0000.19,0000.17
2022-12-24 20:35:00,,0829.9,5.02,0.00,23.5,22.3,00.0,32.3,25.3,11.9,0000.0,0000.26,0000.19,0000.17
2022-12-24 20:36:00,,0829.9,4.98,0.00,23.5,22.3,00.0,32.3,25.3,12.0,0000.0,0000.28,0000.19,0000.17
2022-12-24 20:37:00,,0829.9,4.97,0.00,23.5,22.3,00.0,32.3,25.3,12.1,0000.0,0000.32,0000.21,0000.17
2022-12-24 20:38:00,,0829.9,5.01,0.00,23.5,22.3,00.0,32.3,25.3,12.2,0000.0,0000.33,0000.21,0000.17
2022-12-24 20:39:00,,0829.9,5.02,0.00,23.5,22.1,00.0,32.3,25.2,12.5,0000.0,0000.28,0000.19,0000.16
2022-12-24 20:40:00,,0829.9,5.03,0.00,23.5,21.9,00.0,32.3,25.1,12.5,0000.0,0000.26,0000.18,0000.15
2022-12-24 20:41:00,,0829.8,4.99,0.00,23.4,21.8,00.0,32.3,25.1,12.7,0000.0,0000.26,0000.18,0000.15
2022-12-24 20:42:00,,0829.9,4.97,0.00,23.4,21.6,00.0,32.3,25.0,12.5,0000.0,0000.26,0000.18,0000.15
2022-12-24 20:43:00,,0829.9,4.99,0.00,23.3,21.5,00.0,32.3,25.0,12.4,0000.0,0000.28,0000.19,0000.15
2022-12-24 20:44:00,,0829.9,5.02,0.00,23.3,21.6,00.0,32.3,25.0,12.5,0000.0,0000.30,0000.20,0000.15
2022-12-24 20:45:00,,0829.8,5.02,0.00,23.3,21.6,00.0,32.2,25.0,12.6,0000.0,0000.31,0000.20,0000.15
2022-12-24 20:46:00,,0829.8,5.00,0.00,23.3,21.7,00.0,32.2,24.9,12.2,0000.0,0000.31,0000.20,0000.15
2022-12-24 20:47:00,,0829.8,4.98,0.00,23.3,21.8,00.0,32.2,24.9,12.4,0000.0,0000.32,0000.20,0000.15
2022-12-24 20:48:00,,0829.9,4.97,0.00,23.3,21.9,00.0,32.2,24.9,12.5,0000.0,0000.31,0000.20,0000.15
2022-12-24 20:49:00,,0829.9,5.02,0.00,23.3,21.9,00.0,32.2,25.0,12.9,0000.0,0000.28,0000.19,0000.15
2022-12-24 20:50:00,,0829.9,5.02,0.00,23.3,21.9,00.0,32.2,24.9,12.9,0000.0,0000.28,0000.19,0000.15
2022-12-24 20:51:00,,0829.9,5.01,0.00,23.3,22.0,00.0,32.2,24.9,12.8,0000.0,0000.28,0000.19,0000.16
2022-12-24 20:52:00,,0829.9,4.98,0.00,23.3,22.0,00.0,32.2,24.9,13.0,0000.0,0000.28,0000.19,0000.16
2022-12-24 20:53:00,,0829.9,4.97,0.00,23.3,22.0,00.0,32.2,24.9,12.8,0000.0,0000.29,0000.19,0000.15
2022-12-24 20:54:00,,0829.9,5.02,0.00,23.3,22.0,00.0,32.2,24.9,12.5,0000.0,0000.30,0000.19,0000.15
2022-12-24 20:55:00,,0829.9,5.03,0.00,23.3,22.0,00.0,32.2,24.9,12.7,0000.0,0000.27,0000.18,0000.15
2022-12-24 20:56:00,,0829.9,5.00,0.00,23.3,22.0,00.0,32.2,24.9,12.9,0000.0,0000.27,0000.18,0000.15
2022-12-24 20:57:00,,0829.9,4.97,0.00,23.3,21.9,00.0,32.2,24.9,13.0,0000.0,0000.26,0000.18,0000.14
2022-12-24 20:58:00,,0829.9,4.99,0.00,23.3,21.9,00.0,32.2,24.9,13.1,0000.0,0000.24,0000.16,0000.14
2022-12-24 20:59:00,,0829.9,5.03,0.00,23.3,21.9,00.0,32.2,24.9,13.2,0000.0,0000.21,0000.15,0000.13
